Regional Weather Roundup
Issued by NWS

Home | Current Version | Previous Version | Graphics & Text | Print | Product List | Glossary On
Versions: 1 2 3 4 5 6 7 8 9 10 11 12 13 14 15 16 17 18 19 20 21 22 23 24 25 26 27 28 29 30 31 32 33 34 35 36 37 38 39 40 41 42 43 44 45 46 47 48 49 50
000
ASUS43 KFSD 250702
RWRSD

WEATHER ROUNDUP FOR SOUTH DAKOTA
NATIONAL WEATHER SERVICE SIOUX FALLS SD
200 AM CDT THU MAY 25 2017

NOTE: "FAIR" INDICATES FEW OR NO CLOUDS BELOW 12,000 FEET WITH NO
SIGNIFICANT WEATHER AND/OR OBSTRUCTIONS TO VISIBILITY.


SDZ001>005-009-010-012>017-250800-
NORTHWEST AND NORTH CENTRAL SOUTH DAKOTA

CITY           SKY/WX    TMP DP  RH WIND       PRES   REMARKS
BUFFALO          N/A     52  43  71 NE20      29.32F
FAITH            N/A     55  43  63 S21       29.26F
MOBRIDGE       CLOUDY    58  43  57 SE28G37   29.35F THUNDER
$$

SDZ012>016-024>037-041>051-057-063-072>074-250800-
SOUTHWEST AND SOUTH CENTRAL SOUTH DAKOTA

CITY           SKY/WX    TMP DP  RH WIND       PRES   REMARKS
RAPID CTY ARPT CLEAR     61  52  72 NW24G32   29.37R
PIERRE         CLOUDY    56  43  61 SE21G31   29.35F
CUSTER         CLEAR     58  39  49 NW3       29.45S
ELLSWORTH AFB  MOCLDY    60  52  74 NW24G36   29.37R
PHILIP         CLEAR     59  45  59 N7        29.30F
PINE RIDGE     CLEAR     59  48  67 S13       29.38R
SPEARFISH      CLOUDY    55  43  62 W12       29.48S
WINNER         FAIR      59  43  55 S20G31    29.43S
$$

SDZ004>011-016>023-039-040-250800-
NORTHEAST SOUTH DAKOTA

CITY           SKY/WX    TMP DP  RH WIND       PRES   REMARKS
ABERDEEN       PTCLDY    51  42  71 SE16      29.53S
WATERTOWN      CLEAR     49  42  77 SE10      29.59F
BROOKINGS      CLEAR     49  43  80 SE14      29.62S
SISSETON         N/A     45  44  97 S6        29.59F
$$

SDZ017-020-022-023-036>040-048>070-250800-
SOUTHEAST SOUTH DAKOTA

CITY           SKY/WX    TMP DP  RH WIND       PRES   REMARKS
SIOUX FALLS    CLEAR     51  45  79 SE13      29.62F
HURON          CLEAR     51  45  79 SE13      29.55S
MITCHELL       CLEAR     53  45  74 SE12      29.57R
YANKTON        CLEAR     52  43  71 SE10      29.60F
$$

ABBREVIATIONS USED IN REMARKS
   TC - TEMPERATURE IN CELSIUS
  WCI - WIND CHILL INDEX
   HX - HEAT INDEX
  VSB - VISIBILITY





USA.gov is the U.S. government's official web portal to all federal, state and local government web resources and services.